This demonstration page uses our WeatherBlox Daily Observations layout. Learn more.

Hourly Observations for March 12, 2020

Temp ( °F °C ) Dew Point ( °F °C ) Humidity (%) Winds ( mph kmh ) Pressure ( in mb ) Visibility ( mi km ) Precip ( " mm )
12:15 am 00:15 Clear 54 12 39 4 58 58 S 15 24 29.69 1005 10 16.0934 0 0
12:35 am 00:35 Clear 53 11.5 39 4 60 60 S 14 22 29.68 1005 10 16.0934 0 0
12:55 am 00:55 Clear 51 10.6 39 4 64 64 SSW 12 19 29.68 1005 10 16.0934 0 0
1:15 am 01:15 Clear 52 11 39 4.1 63 63 SW 8 13 29.68 1005 10 16.0934 0 0
1:35 am 01:35 Clear 51 10.6 40 4.3 65 65 W 8 13 29.69 1005 10 16.0934 0 0
1:55 am 01:55 Mostly Cloudy 51 10.5 40 4.5 67 67 WSW 9 15 29.7 1006 10 16.0934 0 0
2:15 am 02:15 Cloudy with Light Rain 52 11.2 41 5.2 67 67 SW 12 19 29.68 1005 10 16.0934 0 0
2:35 am 02:35 Cloudy with Rain 56 13.2 41 5.1 58 58 SW 10 17 29.67 1005 10 16.0934 0 0
2:55 am 02:55 Cloudy 53 11.6 43 6.2 70 70 SSW 12 19 29.68 1005 10 16.0934 0.01 0.254
3:15 am 03:15 Cloudy with Light Rain 53 11.6 44 6.8 73 73 SSW 7 11 29.66 1004 10 16.0934 0 0
3:35 am 03:35 Cloudy 51 10.6 46 7.5 81 81 S 5 7 29.68 1005 5 8.0467 0.09 2.286
3:55 am 03:55 Cloudy with Light Rain 51 10.5 46 7.6 82 82 SE 5 7 29.66 1004 10 16.0934 0.13 3.302
4:15 am 04:15 Mostly Cloudy 51 10.7 47 8.2 85 85 SE 12 19 29.63 1003 10 16.0934 0 0
4:35 am 04:35 Partly Cloudy 51 10.7 46 7.6 81 81 SSE 5 7 29.62 1003 10 16.0934 0 0
4:55 am 04:55 Clear 51 10.7 45 7.3 80 80 SSE 6 9 29.62 1003 10 16.0934 0 0
5:15 am 05:15 Clear 51 10.3 45 7.3 82 82 SSW 3 6 29.62 1003 10 16.0934 0 0
5:35 am 05:35 Clear 52 11.1 45 7.4 78 78 S 6 9 29.62 1003 10 16.0934 0 0
5:55 am 05:55 Clear 48 9.1 43 6.3 83 83 Calm 29.65 1004 10 16.0934 0 0
6:15 am 06:15 Clear 48 8.7 43 6 83 83 W 7 11 29.66 1005 10 16.0934 0 0
6:35 am 06:35 Clear 46 7.6 42 5.3 86 86 W 6 9 29.67 1005 10 16.0934 0 0
6:55 am 06:55 Clear 47 8.4 42 5.7 83 83 WNW 10 17 29.7 1006 10 16.0934 0 0
7:15 am 07:15 Clear 49 9.5 40 4.5 71 71 NW 14 22 29.7 1006 10 16.0934 0 0
7:35 am 07:35 Clear 48 9.1 38 3.3 67 67 N 20 31 29.73 1007 10 16.0934 0 0
7:55 am 07:55 Sunny 44 6.4 34 1.2 70 70 NNW 17 28 29.78 1009 10 16.0934 0 0
8:15 am 08:15 Sunny 42 5.5 34 1.2 74 74 NNW 15 24 29.82 1010 10 16.0934 0 0
8:35 am 08:35 Sunny 42 5.4 35 1.5 76 76 N 14 22 29.82 1010 10 16.0934 0 0
8:55 am 08:55 Sunny 41 5.2 35 1.7 78 78 N 14 22 29.84 1010 10 16.0934 0 0
9:15 am 09:15 Sunny 42 5.5 36 2 78 78 N 14 22 29.83 1010 10 16.0934 0 0
9:35 am 09:35 Sunny 43 6.2 37 2.5 77 77 N 20 31 29.85 1011 10 16.0934 0 0
9:55 am 09:55 Sunny 44 6.7 37 2.8 76 76 N 21 33 29.86 1011 10 16.0934 0 0
10:15 am 10:15 Sunny 45 7 37 2.9 75 75 NNW 24 39 29.86 1011 10 16.0934 0 0
10:35 am 10:35 Partly Cloudy 46 7.9 38 3.3 73 73 N 21 33 29.86 1011 10 16.0934 0 0
10:55 am 10:55 Partly Cloudy 48 9.1 39 3.9 70 70 N 22 35 29.87 1012 10 16.0934 0 0
11:15 am 11:15 Mostly Cloudy 49 9.6 39 3.8 67 67 N 23 37 29.87 1011 10 16.0934 0 0
11:35 am 11:35 Partly Cloudy 49 9.7 38 3.2 64 64 N 22 35 29.87 1011 10 16.0934 0 0
11:55 am 11:55 Partly Cloudy 51 10.5 37 2.8 59 59 N 21 33 29.88 1012 10 16.0934 0 0
12:15 pm 12:15 Mostly Cloudy 52 11 37 3 58 58 N 26 43 29.88 1012 10 16.0934 0 0
12:35 pm 12:35 Partly Cloudy 52 10.9 36 2.3 56 56 N 23 37 29.89 1012 10 16.0934 0 0
12:55 pm 12:55 Partly Cloudy 51 10.5 35 1.8 55 55 N 24 39 29.9 1012 10 16.0934 0 0
1:15 pm 13:15 Partly Cloudy 51 10.5 35 1.9 56 56 N 23 37 29.91 1013 10 16.0934 0 0
1:35 pm 13:35 Sunny 51 10.5 34 1 52 52 N 16 26 29.92 1013 10 16.0934 0 0
1:55 pm 13:55 Partly Cloudy 51 10.8 34 1.1 51 51 NNW 22 35 29.93 1013 10 16.0934 0 0
2:15 pm 14:15 Partly Cloudy 52 11 33 0.5 49 49 N 22 35 29.93 1014 10 16.0934 0 0
2:35 pm 14:35 Partly Cloudy 52 11 31 -0.3 46 46 N 21 33 29.93 1014 10 16.0934 0 0
2:55 pm 14:55 Sunny 52 11 31 -0.5 45 45 N 16 26 29.93 1014 10 16.0934 0 0
3:15 pm 15:15 Sunny 52 11.2 30 -1 43 43 N 20 31 29.93 1014 10 16.0934 0 0
3:35 pm 15:35 Sunny 52 11.3 29 -1.9 40 40 N 20 31 29.93 1014 10 16.0934 0 0
3:55 pm 15:55 Sunny 52 11.1 26 -3.3 37 37 N 22 35 29.93 1014 10 16.0934 0 0
4:15 pm 16:15 Sunny 53 11.5 26 -3.1 36 36 N 21 33 29.95 1014 10 16.0934 0 0
4:35 pm 16:35 Sunny 52 11.1 26 -3.6 36 36 NNW 17 28 29.95 1014 10 16.0934 0 0
4:55 pm 16:55 Sunny 51 10.6 24 -4.2 35 35 N 17 28 29.98 1015 10 16.0934 0 0
5:15 pm 17:15 Sunny 51 10.5 24 -4.2 36 36 N 14 22 29.98 1015 10 16.0934 0 0
5:35 pm 17:35 Sunny 51 10.5 24 -4.4 35 35 N 18 30 29.98 1015 10 16.0934 0 0
5:55 pm 17:55 Sunny 50 10.2 23 -5 34 34 N 14 22 30 1016 10 16.0934 0 0
6:15 pm 18:15 Sunny 50 10.2 22 -5.5 33 33 N 17 28 30.01 1016 10 16.0934 0 0
6:35 pm 18:35 Sunny 49 9.5 22 -5.3 35 35 N 13 20 30.03 1017 10 16.0934 0 0
6:55 pm 18:55 Sunny 48 9.1 22 -5.6 35 35 N 10 17 30.05 1018 10 16.0934 0 0
7:15 pm 19:15 Sunny 47 8.2 22 -5.4 38 38 N 9 15 30.07 1018 10 16.0934 0 0
7:35 pm 19:35 Sunny 46 7.5 22 -5.4 40 40 N 9 15 30.09 1019 10 16.0934 0 0
7:55 pm 19:55 Clear 41 5.2 25 -4.1 51 51 N 8 13 30.12 1020 10 16.0934 0 0
8:15 pm 20:15 Clear 40 4.2 24 -4.2 55 55 N 7 11 30.14 1021 10 16.0934 0 0
8:35 pm 20:35 Clear 37 2.9 24 -4.2 60 60 N 7 11 30.16 1021 10 16.0934 0 0
8:55 pm 20:55 Clear 35 1.7 24 -4.5 64 64 NNE 7 11 30.17 1022 10 16.0934 0 0
9:15 pm 21:15 Clear 35 1.5 23 -4.8 63 63 N 7 11 30.18 1022 10 16.0934 0 0
9:35 pm 21:35 Clear 34 1.3 23 -5 63 63 N 8 13 30.19 1022 10 16.0934 0 0
9:55 pm 21:55 Clear 33 0.5 23 -5.1 66 66 N 6 9 30.21 1023 10 16.0934 0 0
10:15 pm 22:15 Clear 32 0 23 -4.8 70 70 N 5 7 30.23 1024 10 16.0934 0 0
10:35 pm 22:35 Clear 32 0.1 23 -4.8 70 70 Calm 30.23 1024 10 16.0934 0 0
10:55 pm 22:55 Clear 33 0.5 23 -5.1 66 66 N 3 6 30.24 1024 10 16.0934 0 0
11:15 pm 23:15 Clear 32 0.1 23 -5.2 68 68 N 3 6 30.25 1025 10 16.0934 0 0
11:35 pm 23:35 Clear 32 -0.1 22 -5.4 68 68 Calm 30.26 1025 10 16.0934 0 0
11:55 pm 23:55 Clear 31 -0.8 22 -5.3 72 72 Calm 30.27 1025 10 16.0934 0 0

Powered by AerisWeather